Station 46054 (LLNR 198.1) - WEST SANTA BARBARA 38 NM West of Santa Barbara, CA Image indicating link to RSS feed of recent meteorological observations for station 46054


Conditions at 46054 as of
(6:30 am PDT)
1330 GMT on 04/16/2024:
     

Click on the graph icon in the table below to see a time series plot of the last five days of that observation.

5-day plot - Wind Direction Wind Direction (WDIR):NNW ( 330 deg true )
5-day plot - Wind Speed Wind Speed (WSPD): 13.6 kts
5-day plot - Wind Gust Wind Gust (GST): 19.4 kts
5-day plot - Atmospheric Pressure Atmospheric Pressure (PRES):30.01 in
5-day plot - Air Temperature Air Temperature (ATMP): 54.5 °F
5-day plot - Water Temperature Water Temperature (WTMP): 54.1 °F
5-day plot - Dew Point Dew Point (DEWP): 52.0 °F
5-day plot - Wind Speed at 10 Meters Wind Speed at 10 meters (WSPD10M): 15.5 kts
5-day plot - Wind Speed at 20 Meters Wind Speed at 20 meters (WSPD20M): 15.5 kts
5-day plot -  Wind Speed, Wind Gust and Atmospheric Pressure Combined plot of Wind Speed, Gust, and Air Pressure
Supplemental Measurements
Highest 1-minute Wind Speed
Time (PDT)5-day plot - 1-Minute Wind Speed WSPD 5-day plot - 1-Minute Wind Direction WDIR
6:28 am 15.5 kts-
Previous observations
TIME
(PDT)
5-day plot - Wind Direction
WDIR
 
5-day plot - Wind Speed
WSPD
kts
5-day plot - Wind Gust
GST
kts
5-day plot - Wave Height
WVHT
ft
5-day plot - Dominant Wave Period
DPD
sec
5-day plot - Average Wave Period
APD
sec
5-day plot - Mean Wave Direction
MWD
 
5-day plot - Atmospheric Pressure
PRES
in
5-day plot - Pressure Tendency
PTDY
in
5-day plot - Air Temperature
ATMP
°F
5-day plot - Water Temperature
WTMP
°F
5-day plot - Dew Point
DEWP
°F
5-day plot - Salinity
SAL
psu
5-day plot - Visibility
VIS
nmi
5-day plot - Tide (above MLLW)
TIDE
ft
2024-04-16 06:20 amNNW 13.6 15.5 8.2 86.3 NW30.01- 54.5 54.1 52.0---
2024-04-16 06:10 amNNW 15.5 19.4 8.2-6.3 NW30.01- 54.3 54.1 52.3---
2024-04-16 06:00 amNNW 17.5 21.4----30.01-0.02 54.1 54.1 52.3---
2024-04-16 05:50 amNNW 21.4 27.2 8.2 85.9 NW30.01- 54.0 54.1 52.3---
2024-04-16 05:40 amNNW 23.3 27.2----30.01- 54.0 54.1 52.3---
2024-04-16 05:30 amNNW 21.4 27.2----30.01- 54.0 54.1 52.3---
2024-04-16 05:20 amNNW 21.4 29.1 8.2 75.9 NW30.01- 54.0 54.3 52.3---
2024-04-16 05:10 amNNW 19.4 27.2 8.2-5.9 NW30.01- 54.0 54.3 52.3---
2024-04-16 05:00 amNNW 21.4 27.2----30.01-0.01 54.0 54.3 52.3---
2024-04-16 04:50 amNNW 21.4 29.1 8.2 75.9 NW30.02- 54.0 54.3 52.0---
2024-04-16 04:40 amNNW 23.3 29.1----30.02- 54.1 54.3 52.2---
2024-04-16 04:30 am NW 25.3 33.0----30.01- 54.1 54.3 52.2---
2024-04-16 04:20 am NW 25.3 31.1 8.5 65.9 NW30.01- 54.1 54.3 52.3---
2024-04-16 04:10 am NW 23.3 31.1----30.01- 54.1 54.3 52.2---
2024-04-16 04:00 am NW 23.3 29.1----30.01-0.03 54.3 54.3 52.3---
2024-04-16 03:50 am NW 23.3 29.1 8.2 75.8 NW30.02- 54.3 54.3 52.3---
2024-04-16 03:40 am NW 21.4 29.1----30.02- 54.3 54.3 52.3---
2024-04-16 03:30 am NW 21.4 27.2----30.02- 54.3 54.3 52.3---
2024-04-16 03:20 am NW 21.4 27.2 8.2 85.8 NW30.02- 54.3 54.3 52.3---
2024-04-16 03:10 am NW 21.4 25.3 8.2-5.8 NW30.02- 54.3 54.3 52.3---
2024-04-16 03:00 am NW 21.4 25.3----30.03-0.01 54.3 54.3 52.3---
2024-04-16 02:50 am NW 21.4 27.2 8.9 85.8 NW30.02- 54.3 54.3 52.3---
2024-04-16 02:40 am NW 23.3 29.1----30.02- 54.1 54.5 52.2---
2024-04-16 02:30 am NW 23.3 29.1----30.01- 54.1 54.5 52.2---
2024-04-16 02:20 am NW 23.3 29.1 8.9 76.1 NW30.02- 54.1 54.5 52.2---
2024-04-16 02:10 am NW 23.3 29.1 8.9-6.1 NW30.02- 54.1 54.5 52.0---
2024-04-16 02:00 am NW 23.3 29.1----30.03-0.02 54.1 54.5 52.0---
2024-04-16 01:50 am NW 21.4 27.2 8.5 86.0 NW30.03- 54.1 54.5 52.0---
2024-04-16 01:40 am NW 23.3 29.1----30.04- 54.3 54.5 52.2---
2024-04-16 01:30 am NW 23.3 31.1----30.04- 54.3 54.5 52.2---
2024-04-16 01:20 am NW 23.3 29.1 8.9 86.0 NW30.04- 54.1 54.5 52.0---
2024-04-16 01:10 am NW 21.4 27.2 8.9-6.0 NW30.04- 54.1 54.5 52.0---
2024-04-16 01:00 am NW 21.4 29.1----30.04+0.00 54.1 54.5 52.0---
2024-04-16 12:50 am NW 21.4 29.1 8.5 75.8 NW30.04- 54.1 54.5 52.2---
2024-04-16 12:40 am NW 25.3 31.1----30.04- 54.1 54.5 52.0---
2024-04-16 12:30 am NW 25.3 33.0----30.04- 54.1 54.7 52.0---
2024-04-16 12:20 am NW 25.3 31.1 8.5 75.9 NW30.04- 54.1 54.5 52.0---
2024-04-16 12:10 am NW 25.3 33.0----30.04- 54.1 54.5 52.0---
2024-04-16 12:00 am NW 25.3 31.1----30.04+0.00 54.1 54.7 52.0---
2024-04-15 11:50 pm NW 25.3 33.0 7.9 85.6 NW30.04- 54.1 54.7 52.0---
2024-04-15 11:40 pmNNW 25.3 31.1----30.04- 54.1 54.7 52.0---
2024-04-15 11:30 pmNNW 27.2 33.0----30.05- 54.3 54.7 52.2---
2024-04-15 11:20 pmNNW 29.1 35.0 8.2 75.8 NW30.04- 54.3 54.7 52.0---
2024-04-15 11:10 pm NW 25.3 31.1 8.2-5.8 NW30.05- 54.3 54.7 52.2---
2024-04-15 11:00 pm NW 27.2 33.0----30.05+0.02 54.3 54.7 52.2---
2024-04-15 10:50 pm NW 27.2 33.0 8.2 65.6 NW30.05- 54.3 54.7 52.2---
2024-04-15 10:40 pm NW 25.3 33.0----30.05- 54.3 54.7 52.2---
2024-04-15 10:30 pm NW 25.3 31.1----30.06- 54.3 54.7 52.2---
2024-04-15 10:20 pm NW 27.2 33.0 8.5 75.8 NW30.05- 54.3 54.7 52.0---
2024-04-15 10:10 pm NW 25.3 33.0----30.05- 54.5 54.7 52.2---
2024-04-15 10:00 pm NW 25.3 31.1----30.05+0.01 54.5 54.7 52.0---
2024-04-15 09:50 pm NW 25.3 31.1 8.5 75.7 NW30.05- 54.5 54.7 52.0---
2024-04-15 09:40 pm NW 23.3 29.1----30.05- 54.5 54.7 52.0---
2024-04-15 09:30 pm NW 23.3 29.1----30.05- 54.5 54.7 52.0---
2024-04-15 09:20 pm NW 23.3 31.1 8.2 75.6 NW30.04- 54.5 54.9 52.0---
2024-04-15 09:10 pm NW 25.3 29.1 8.2-5.6 NW30.04- 54.5 54.9 52.0---
2024-04-15 09:00 pm NW 25.3 31.1----30.04-0.01 54.5 54.9 52.0---
2024-04-15 08:50 pm NW 25.3 31.1 7.9 65.5 NW30.04- 54.5 54.9 51.8---
2024-04-15 08:40 pm NW 25.3 31.1----30.04- 54.5 54.9 51.6---
2024-04-15 08:30 pm NW 23.3 29.1----30.04- 54.5 54.9 52.0---
2024-04-15 08:20 pm NW 25.3 31.1 7.9 85.6 NW30.04- 54.5 55.0 51.8---
2024-04-15 08:10 pm NW 25.3 31.1----30.03- 54.5 55.0 51.6---
2024-04-15 08:00 pm NW 25.3 31.1----30.03-0.02 54.5 54.9 51.8---
2024-04-15 07:50 pm NW 25.3 33.0 8.2 105.6 NW30.03- 54.5 54.9 51.8---
2024-04-15 07:40 pm NW 25.3 31.1 8.2-5.6 NW30.03- 54.5 54.9 51.8---
2024-04-15 07:30 pm NW 25.3 33.0----30.03- 54.7 54.9 52.0---
2024-04-15 07:20 pm NW 25.3 33.0 7.5 95.6 NW30.03- 54.7 54.9 51.8---
2024-04-15 07:10 pm NW 23.3 29.1 7.5-5.6 NW30.03- 54.7 54.9 52.0---
2024-04-15 07:00 pm NW 25.3 31.1----30.03-0.04 54.7 55.0 51.8---
2024-04-15 06:50 pm NW 25.3 29.1 7.5 115.5 NW30.03- 54.7 55.0 52.0---
2024-04-15 06:40 pm NW 25.3 31.1----30.03- 54.9 55.0 52.0---
2024-04-15 06:30 pm NW 23.3 33.0----30.03- 54.9 55.0 52.0---
2024-04-15 06:20 pm NW 23.3 29.1 7.5 75.4 NW30.03- 54.9 55.0 52.0---
2024-04-15 06:10 pm NW 23.3 29.1 7.5-5.4 NW30.04- 54.9 55.0 52.0---
2024-04-15 06:00 pm NW 23.3 27.2----30.04-0.06 54.9 55.0 52.2---
2024-04-15 05:50 pm NW 23.3 29.1 7.5 115.5WNW30.04- 55.0 55.0 52.2---
2024-04-15 05:40 pm NW 23.3 27.2----30.05- 55.0 55.0 52.2---
2024-04-15 05:30 pm NW 23.3 29.1----30.05- 54.9 54.9 51.8---
2024-04-15 05:20 pm NW 23.3 29.1 6.9 115.6 NW30.05- 54.9 55.0 52.0---
2024-04-15 05:10 pm NW 23.3 31.1 6.9-5.6 NW30.05- 55.0 55.0 52.2---
2024-04-15 05:00 pm NW 23.3 29.1----30.05-0.07 55.0 54.9 52.2---
2024-04-15 04:50 pm NW 23.3 29.1 7.2 85.4WNW30.06- 55.0 54.9 52.2---
2024-04-15 04:40 pm NW 23.3 29.1----30.06- 55.0 54.9 52.2---
2024-04-15 04:30 pm NW 23.3 27.2----30.06- 55.0 54.9 52.2---
2024-04-15 04:20 pm NW 23.3 29.1 7.2 115.5 NW30.06- 55.0 54.9 52.2---
2024-04-15 04:10 pm NW 21.4 27.2 7.2-5.5 NW30.07- 54.9 54.9 52.0---
2024-04-15 04:00 pm NW 21.4 27.2----30.07-0.07 54.9 54.9 52.0---
2024-04-15 03:50 pm NW 21.4 27.2 6.6 105.3 NW30.07- 54.9 54.9 52.0---
2024-04-15 03:40 pm NW 21.4 25.3----30.08- 54.7 54.9 51.8---
2024-04-15 03:30 pm NW 19.4 25.3----30.08- 54.7 54.9 52.0---
2024-04-15 03:20 pm NW 19.4 25.3 6.9 115.9 NW30.08- 54.9 54.9 52.3---
2024-04-15 03:10 pm NW 19.4 23.3 6.9-5.9 NW30.09- 54.9 54.7 52.2---
2024-04-15 03:00 pm NW 19.4 25.3----30.09-0.06 54.9 54.7 52.0---
2024-04-15 02:50 pm NW 19.4 23.3 7.2 115.7 NW30.10- 54.9 54.7 52.0---
2024-04-15 02:40 pm NW 19.4 23.3----30.11- 54.9 54.7 52.0---
2024-04-15 02:30 pm NW 19.4 23.3----30.11- 54.9 54.7 52.0---
2024-04-15 02:20 pm NW 19.4 23.3 6.9 115.5 NW30.12- 54.9 54.7 52.0---
2024-04-15 02:10 pm NW 19.4 23.3----30.12- 54.7 54.7 51.8---
2024-04-15 02:00 pm NW 19.4 23.3----30.12-0.05 54.7 54.5 51.8---
2024-04-15 01:50 pm NW 19.4 23.3 7.5 116.0 NW30.12- 54.5 54.5 51.4---
2024-04-15 01:40 pm NW 17.5 21.4 7.5-6.0 NW30.12- 54.5 54.5 51.6---
2024-04-15 01:30 pm NW 19.4 23.3----30.13- 54.5 54.5 51.6---
2024-04-15 01:20 pm NW 19.4 23.3 6.9 75.5WNW30.13- 54.5 54.5 51.6---
2024-04-15 01:10 pm NW 17.5 23.3 6.9-5.5WNW30.13- 54.5 54.3 51.8---
2024-04-15 01:00 pm NW 19.4 23.3----30.14-0.03 54.5 54.3 51.6---
2024-04-15 12:50 pm NW 17.5 23.3 7.5 105.9 NW30.14- 54.3 54.3 51.4---
2024-04-15 12:40 pm NW 19.4 23.3----30.15- 54.3 54.3 51.4---
2024-04-15 12:30 pm NW 17.5 23.3----30.15- 54.3 54.3 51.4---
2024-04-15 12:20 pm NW 19.4 21.4 6.9 105.6WNW30.15- 54.3 54.3 51.3---
2024-04-15 12:10 pm NW 19.4 23.3 6.9-5.6WNW30.16- 54.3 54.3 51.4---
2024-04-15 12:00 pm NW 17.5 21.4----30.16+0.03 54.3 54.3 51.4---
2024-04-15 11:50 am NW 17.5 21.4 7.2 105.9 NW30.16- 54.3 54.3 51.3---
2024-04-15 11:40 am NW 17.5 21.4 7.2-5.9 NW30.16- 54.1 54.3 51.1---
2024-04-15 11:30 am NW 17.5 21.4----30.16- 54.1 54.3 51.1---
2024-04-15 11:20 am NW 17.5 21.4 7.9 116.0 NW30.17- 54.1 54.1 51.3---
2024-04-15 11:10 am NW 17.5 21.4----30.16- 54.1 54.1 51.1---
2024-04-15 11:00 am NW 19.4 21.4----30.16+0.05 54.1 54.1 51.1---
2024-04-15 10:50 am NW 19.4 25.3 7.2 115.6 NW30.16- 54.1 54.1 50.7---
2024-04-15 10:40 am NW 21.4 25.3----30.16- 54.1 54.1 50.7---
2024-04-15 10:30 am NW 19.4 23.3----30.16- 54.1 54.1 50.9---
2024-04-15 10:20 am NW 19.4 25.3 7.5 105.7 NW30.17- 54.1 54.1 50.7---
2024-04-15 10:10 am NW 19.4 23.3----30.16- 54.1 54.1 50.9---
2024-04-15 10:00 am NW 19.4 25.3----30.16+0.07 54.1 54.1 51.1---
2024-04-15 09:50 am NW 21.4 25.3 7.5 115.5WNW30.16- 54.1 54.1 50.9---
2024-04-15 09:40 am NW 19.4 23.3----30.15- 54.1 54.1 51.1---
2024-04-15 09:30 am NW 21.4 25.3----30.15- 54.1 54.1 51.1---
2024-04-15 09:20 am NW 21.4 25.3 7.9 106.0 NW30.15- 54.1 54.1 51.1---
2024-04-15 09:10 am NW 21.4 25.3 7.9-6.0 NW30.14- 54.1 54.1 51.1---
2024-04-15 09:00 am NW 21.4 25.3----30.14+0.06 54.1 54.1 51.3---
2024-04-15 08:50 am NW 21.4 27.2 7.9 106.3 NW30.13- 54.1 54.1 51.1---
2024-04-15 08:40 am NW 19.4 25.3----30.13- 54.1 54.1 51.3---
2024-04-15 08:30 am NW 21.4 25.3----30.13- 54.1 54.1 51.1---
2024-04-15 08:20 am NW 21.4 25.3 8.2 116.1 NW30.12- 54.1 54.3 51.1---
2024-04-15 08:10 am NW 19.4 23.3----30.12- 54.3 54.3 51.3---
2024-04-15 08:00 am NW 21.4 25.3----30.11+0.05 54.1 54.3 50.9---
2024-04-15 07:50 am NW 19.4 23.3 7.9 116.2 NW30.11- 54.1 54.3 51.3---
2024-04-15 07:40 am NW 17.5 23.3----30.11- 54.1 54.3 51.3---
2024-04-15 07:30 am NW 17.5 21.4----30.11- 54.1 54.3 51.3---
2024-04-15 07:20 am NW 17.5 21.4 7.2 115.9 NW30.10- 54.1 54.3 51.4---
2024-04-15 07:10 am NW 17.5 21.4 7.2-5.9 NW30.10- 54.1 54.3 51.3---
2024-04-15 07:00 amNNW 19.4 23.3----30.09+0.02 54.0 54.3 51.3---
2024-04-15 06:50 amNNW 19.4 23.3 8.5 116.4WNW30.09- 54.0 54.3 51.3---
2024-04-15 06:40 amNNW 19.4 23.3----30.09- 53.8 54.3 51.1---
2024-04-15 06:30 amNNW 19.4 23.3----30.08- 53.8 54.3 51.1---
2024-04-15 06:20 amNNW 17.5 23.3 8.5 106.3 NW30.08- 54.0 54.3 51.3---
2024-04-15 06:10 am NW 19.4 23.3 8.5-6.3 NW30.08- 54.0 54.3 51.3---
2024-04-15 06:00 am NW 19.4 23.3----30.08+0.01 53.8 54.3 50.9---
2024-04-15 05:50 am NW 19.4 23.3 8.5 116.4 NW30.08- 54.0 54.3 51.1---

Detailed Wave Summary
for 46054 as of (6:10 am PDT)
1310 GMT on 04/16/2024:

These wave data are displayed in rounded times.

     

Click on the graph icon in the table below to see a time series plot of the last five days of that observation.

5-day plot - Significant Wave Height Significant Wave Height (WVHT): 8.2 ft
5-day plot - Swell Height Swell Height (SwH): 6.2 ft
5-day plot - Swell Period Swell Period (SwP): 7.7 sec
5-day plot - Swell Direction Swell Direction (SwD): NW
5-day plot - Wind Wave Height Wind Wave Height (WWH): 5.6 ft
5-day plot - Wind Wave Period Wind Wave Period (WWP): 6.7 sec
5-day plot - Wind Wave Direction Wind Wave Direction (WWD): NW
5-day plot - Wave Steepness Wave Steepness (STEEPNESS): STEEP
5-day plot - Average Wave Period Average Wave Period (APD): 6.3 sec
Previous observations
TIME
(PDT)
5-day plot - Wave Height
WVHT
ft
5-day plot - Swell Height
SwH
ft
5-day plot - Swell Period
SwP
sec
5-day plot - Swell Direction
SwD
 
5-day plot - Wind Wave Height
WWH
ft
5-day plot - Wind Wave Period
WWP
sec
5-day plot - Wind Wave Direction
WWD
 
5-day plot - Wave Steepness
STEEPNESS
 
5-day plot - Average Wave Period
APD
sec
2024-04-16 05:40 am 8.2 5.9 8.3 NW 5.6 6.2 NW STEEP 5.9
2024-04-16 05:10 am 8.2 5.9 12.9 NW 5.6 6.7 NWVERY_STEEP 5.9
2024-04-16 04:40 am 8.2 4.6 10.8 NW 6.6 7.1 NW STEEP 5.9
2024-04-16 04:10 am 8.5 4.3 9.1 NW 7.5 6.2 NWVERY_STEEP 5.9
2024-04-16 03:40 am 8.2 5.6 7.7WNW 5.9 6.7 NWVERY_STEEP 5.8
2024-04-16 03:10 am 8.2 5.2 8.3 NW 6.6 7.1 NW STEEP 5.8
2024-04-16 02:40 am 8.9 5.9 7.7 NW 6.2 5.9 NW STEEP 5.8
2024-04-16 02:10 am 8.9 7.2 7.1 NW 5.2 4.5 NWVERY_STEEP 6.1
2024-04-16 01:40 am 8.5 6.9 7.7 NW 5.2 5.9 NW STEEP 6.0
2024-04-16 01:10 am 8.9 4.3 10.0 NW 7.9 7.7 NW STEEP 6.0
2024-04-16 12:40 am 8.5 5.6 7.7 NW 6.6 6.7 NWVERY_STEEP 5.8
2024-04-16 12:10 am 8.5 4.9 10.0 NW 7.2 6.7 NWVERY_STEEP 5.9
2024-04-15 11:40 pm 7.9 4.3 10.0 NW 6.6 7.7 NW STEEP 5.6
2024-04-15 11:10 pm 8.2 5.2 9.1 NW 6.6 7.1 NW STEEP 5.8
2024-04-15 10:40 pm 8.2 3.3 10.0 NW 7.5 6.2 NWVERY_STEEP 5.6
2024-04-15 10:10 pm 8.5 5.2 10.0 NW 6.9 7.1 NWVERY_STEEP 5.8
2024-04-15 09:40 pm 8.5 4.9 10.0 NW 6.9 6.7 NWVERY_STEEP 5.7
2024-04-15 09:10 pm 8.2 4.9 10.0 NW 6.6 7.1 NW STEEP 5.6
2024-04-15 08:40 pm 7.9 5.2 7.7 NW 5.9 6.2 NWVERY_STEEP 5.5
2024-04-15 08:10 pm 7.9 5.2 8.3 NW 5.9 7.1 NW STEEP 5.6
2024-04-15 07:40 pm 8.2 5.9 10.0 NW 5.6 6.2 WNW AVERAGE 5.6
2024-04-15 07:10 pm 7.5 5.2 9.1 NW 5.6 5.6 NW AVERAGE 5.6
2024-04-15 06:40 pm 7.5 4.9 10.8 NW 5.9 7.1 NW AVERAGE 5.5
2024-04-15 06:10 pm 7.5 5.2 7.1 NW 5.6 5.0 WNW STEEP 5.4
2024-04-15 05:40 pm 7.5 4.9 10.8WNW 5.9 7.1 WNW AVERAGE 5.5
2024-04-15 05:10 pm 6.9 5.2 10.8 NW 4.6 5.6 WNW SWELL 5.6
2024-04-15 04:40 pm 7.2 4.9 7.7WNW 5.2 6.7 WNW STEEP 5.4
2024-04-15 04:10 pm 7.2 5.2 10.8 NW 4.9 6.7 WNW SWELL 5.5
2024-04-15 03:40 pm 6.6 4.6 10.0 NW 4.6 5.9 WNW SWELL 5.3
2024-04-15 03:10 pm 6.9 5.2 10.8 NW 4.6 6.7 WNW SWELL 5.9
2024-04-15 02:40 pm 7.2 5.9 10.8 NW 4.6 5.6 WNW SWELL 5.7
2024-04-15 02:10 pm 6.9 4.6 10.8 NW 4.9 6.7 WNW AVERAGE 5.5
2024-04-15 01:40 pm 7.5 6.2 10.8 NW 4.6 5.0 NW SWELL 6.0
2024-04-15 01:10 pm 6.9 5.2 7.1WNW 4.3 5.3 WNW STEEP 5.5
2024-04-15 12:40 pm 7.5 5.9 10.0 NW 4.9 6.7 WNW AVERAGE 5.9
2024-04-15 12:10 pm 6.9 4.9 10.0WNW 4.6 6.7 WNW AVERAGE 5.6
2024-04-15 11:40 am 7.2 5.6 10.0 NW 4.3 5.6 NW AVERAGE 5.9
2024-04-15 11:10 am 7.9 5.9 10.8 NW 5.2 5.6 NW SWELL 6.0
2024-04-15 10:40 am 7.2 4.9 10.8 NW 5.2 6.7 WNW AVERAGE 5.6
2024-04-15 10:10 am 7.5 5.2 10.0 NW 5.6 6.7 WNW AVERAGE 5.7
2024-04-15 09:40 am 7.5 5.2 10.8WNW 5.2 5.9 NW SWELL 5.5
2024-04-15 09:10 am 7.9 5.9 10.0 NW 5.2 6.2 WNW AVERAGE 6.0
2024-04-15 08:40 am 7.9 6.2 10.0 NW 5.2 6.7 WNW AVERAGE 6.3
2024-04-15 08:10 am 8.2 6.2 10.8 NW 5.2 5.9 WNW SWELL 6.1
2024-04-15 07:40 am 7.9 6.6 10.8 NW 4.3 6.2 NW SWELL 6.2
2024-04-15 07:10 am 7.2 5.6 10.8 NW 4.6 6.7 WNW SWELL 5.9
2024-04-15 06:40 am 8.5 7.2 10.8WNW 4.9 6.7 NW AVERAGE 6.4
2024-04-15 06:10 am 8.5 7.2 10.0 NW 4.3 5.9 NW AVERAGE 6.3

Plot of wave energy versus frequency (and period)